[[{"header":{"parameterUnit":"m.s-1","parameterCategory":1,"la1":30.2991,"la2":30.254,"lo1":-89.0895,"lo2":-89.0444,"dy":0.0017,"dx":0.0017,"nx":28,"ny":28,"refTime":"2024-04-03T09:00:00:Z","depth":0,"parameterNumber":2,"parameterNumberName":"U-component_of_WINDS"},"data":[0,0,0,0,0,0,0,0,0,0,0,0,0,0,0,0,0,0,0,0,0,0,0,0,0,0,0,0,0,0,0,0,0,0,0,0,0,0,0,0,0,0,0,0,0,0,0,0,0,0,0,0,0,0,0,0,0,0,6.2059,6.206,0,6.2145,6.2146,6.2147,6.2133,6.2131,6.213,6.2128,6.2216,6.222,6.2223,0,0,0,0,0,0,0,0,0,0,0,0,0,6.1882,6.1885,6.2059,6.206,6.2061,6.2145,6.2146,6.2147,6.2133,6.2131,6.2129,6.2128,6.2215,6.2219,6.2224,0,0,0,0,0,0,0,0,0,0,0,0,0,6.1963,6.1887,6.2058,6.2064,6.2065,6.2145,6.2146,6.2148,6.2133,6.2131,6.2129,6.2127,6.2214,6.2219,6.2224,6.2304,0,0,6.2242,6.2244,0,0,0,0,0,0,0,0,6.1958,6.1969,6.2062,6.2064,6.2065,6.2126,6.2116,6.22,6.2134,6.2108,6.2128,6.2126,6.2188,6.2195,6.2217,6.2308,6.2312,6.2242,6.2245,6.2248,6.2249,0,0,0,0,0,0,0,6.1953,6.1965,6.2093,6.2063,6.2065,6.2062,6.2071,6.2132,6.2159,6.211,6.2109,6.2119,6.2188,6.2211,6.2219,6.2313,6.2242,6.2247,6.225,6.2253,6.2477,6.248,0,0,0,0,0,0,6.1945,6.1961,6.209,6.2095,6.2005,6.2067,6.2077,6.2109,6.2159,6.2164,6.2121,6.2118,6.2203,6.2212,6.2222,6.232,6.2248,6.2253,6.2256,6.2475,6.2478,6.2481,0,0,0,0,0,0,6.1942,6.1957,6.2087,6.2028,6.2044,6.2073,6.2108,6.2112,6.2134,6.2167,6.2172,6.2139,6.2201,6.2214,6.2284,6.2323,6.2256,6.2261,6.2472,6.2476,6.2479,6.2516,0,0,0,0,0,0,6.1937,6.1956,6.1986,6.2029,6.2048,6.2148,6.211,6.2115,6.2144,6.2141,6.2186,6.2191,6.2201,6.2276,6.229,6.2329,6.2265,6.2468,6.2473,6.2478,6.2511,6.252,6.2528,0,0,0,0,0,6.193,6.1992,6.1987,6.2003,6.2086,6.215,6.216,6.2171,6.2147,6.2178,6.22,6.2189,6.2316,6.2283,6.2299,6.234,6.2466,6.2472,6.2478,6.2507,6.2518,6.2528,0,0,0,0,0,0,6.1951,6.1997,6.1993,6.207,6.2106,6.2147,6.2186,6.2182,6.2225,6.222,6.2231,6.2241,6.2313,6.2334,6.2296,6.2421,6.2388,6.2397,6.2405,6.2416,6.2424,6.2418,6.227,0,0,0,0,0,6.1965,6.2013,6.2051,6.2115,6.2134,6.2157,6.2185,6.2191,6.2228,6.2243,6.227,6.2307,6.2355,6.2387,6.2433,6.2514,6.2525,6.2551,6.2559,6.2566,6.2574,6.2621,6.2633,6.25,6.25,6.25,0,0,6.1994,6.2025,6.2054,6.2121,6.2149,6.22,6.217,6.2224,6.2262,6.2251,6.232,6.2341,6.2383,6.246,6.2496,6.248,6.2613,6.2573,6.2579,6.2583,6.2628,6.2641,6.2652,6.2504,6.2503,6.2503,0,0,6.2072,6.21,6.2158,6.2187,6.2232,6.2247,6.2261,6.2304,6.2318,6.2387,6.2381,6.2426,6.2509,6.254,6.2567,6.266,6.2653,6.2675,6.2719,6.2765,6.2775,6.2785,6.282,6.2832,6.2683,6.2683,6.2683,0,6.2101,6.2177,6.2188,6.2243,6.2273,6.2268,6.2327,6.2355,6.2412,6.2434,6.2415,6.2521,6.2548,6.2634,6.2657,6.2678,6.2696,6.267,6.2773,6.2783,6.2791,6.2825,6.2838,6.2685,6.2685,6.2685,6.2684,0,6.2212,6.2265,6.2307,6.2363,6.2398,6.2455,6.2475,6.2509,6.2512,6.253,6.2602,6.2636,6.269,6.271,6.2713,6.2797,6.2786,6.277,6.2737,6.2806,6.2838,6.2851,6.2689,6.2688,6.2687,6.2686,0,0,6.2304,6.2368,6.2383,6.241,6.246,6.2501,6.2559,6.2613,6.2642,6.2682,6.2732,6.2804,6.279,6.2821,6.2827,6.2867,6.2941,6.2847,6.2848,6.2864,6.3038,6.305,6.3065,6.2937,6.2939,6.2941,6.3035,0,6.2388,6.2491,6.2503,6.2594,6.2644,6.2641,6.2692,6.2728,6.2747,6.2793,6.2813,6.2864,6.2842,6.2861,6.29,6.2924,6.2976,6.2917,6.2984,6.2986,6.2974,6.3081,6.3093,6.318,6.3047,6.3049,6.3051,0,6.2499,6.2544,6.2641,6.2686,6.2707,6.2753,6.2804,6.2847,6.289,6.2901,6.2936,6.2938,6.2999,6.2964,6.3049,6.3008,6.3037,6.3053,6.3056,6.3063,6.3023,6.3091,6.3208,6.3221,6.307,6.3068,6.3067,0,6.2559,6.2643,6.2712,6.2735,6.2789,6.2822,6.2846,6.2885,6.2918,6.2963,6.2985,6.3036,6.3064,6.3105,6.3121,6.3094,6.3206,6.3172,6.3218,6.3218,6.3242,6.324,6.3365,6.3259,6.3259,6.3258,6.3258,0,6.2651,6.2711,6.274,6.2783,6.285,6.2865,6.2931,6.2954,6.299,6.3037,6.3037,6.3082,6.3101,6.3149,6.3163,6.3232,6.3245,6.3256,6.3259,6.3256,6.3255,6.3275,6.327,6.3262,6.3261,6.3261,6.326,0,6.2729,6.2751,6.2826,6.2872,6.2885,6.2933,6.2973,6.3015,6.3034,6.3094,6.3109,6.314,6.3197,6.3217,6.3286,6.3295,6.3376,6.3374,6.3362,6.3363,6.3409,6.3405,6.3552,6.3572,6.3452,6.3453,6.3454,0,6.2787,6.2833,6.2884,6.2917,6.2942,6.2994,6.3028,6.3044,6.308,6.3133,6.3169,6.3225,6.3272,6.3363,6.3392,6.3445,6.3445,6.3493,6.3453,6.345,6.3447,6.3444,6.345,6.35,6.3501,6.3502,6.3503,0,6.2888,6.2897,6.2946,6.2999,6.304,6.3082,6.3123,6.315,6.3173,6.3213,6.3271,6.3308,6.3379,6.3436,6.3492,6.3517,6.3515,6.3516,6.3529,6.3527,6.3519,6.3526,6.3384,6.3512,6.3511,6.351,6.351,6.3509,6.2959,6.3,6.3044,6.3099,6.3132,6.3171,6.3213,6.3239,6.3288,6.3348,6.3355,6.3419,6.3462,6.3536,6.3564,6.3615,6.3602,6.3621,6.3627,6.3631,6.3636,6.3511,6.3625,6.3625,6.3624,6.3624,6.3624,0,6.3061,6.309,6.314,6.3199,6.3242,6.3237,6.3283,6.332,6.3376,6.3416,6.3463,6.3532,6.3588,6.3621,6.3678,6.3712,6.3713,6.3726,6.3724,6.3731,6.3643,6.3626,6.3725,6.3725,6.3725,6.3725,6.3725,6.3725,6.312,6.3191,6.3205,6.3294,6.3321,6.3384,6.3411,6.3448,6.3481,6.3558,6.3605,6.3626,6.3665,6.3725,6.3777,6.3785,6.3806,6.3822,6.3829,6.3747,6.3737,6.3727,6.3711,6.3826,6.3826,6.3913,6.3914,6.3914]},{"header":{"parameterUnit":"m.s-1","parameterCategory":1,"la1":30.2991,"la2":30.254,"lo1":-89.0895,"lo2":-89.0444,"dy":0.0017,"dx":0.0017,"nx":28,"ny":28,"refTime":"2024-04-03T09:00:00:Z","depth":0,"parameterNumber":3,"parameterNumberName":"V-component_of_WINDS"},"data":[0,0,0,0,0,0,0,0,0,0,0,0,0,0,0,0,0,0,0,0,0,0,0,0,0,0,0,0,0,0,0,0,0,0,0,0,0,0,0,0,0,0,0,0,0,0,0,0,0,0,0,0,0,0,0,0,0,0,-1.9046,-1.9046,0,-1.9029,-1.9029,-1.9029,-1.9065,-1.9066,-1.9068,-1.9069,-1.9046,-1.9044,-1.9043,0,0,0,0,0,0,0,0,0,0,0,0,0,-1.9107,-1.9105,-1.9046,-1.9046,-1.9046,-1.9029,-1.9029,-1.9029,-1.9065,-1.9066,-1.9068,-1.9069,-1.9047,-1.9044,-1.9042,0,0,0,0,0,0,0,0,0,0,0,0,0,-1.9084,-1.9105,-1.9047,-1.9062,-1.9063,-1.903,-1.9029,-1.9029,-1.9065,-1.9066,-1.9068,-1.907,-1.9047,-1.9045,-1.9042,-1.8991,0,0,-1.9034,-1.9033,0,0,0,0,0,0,0,0,-1.9085,-1.9082,-1.906,-1.9061,-1.9062,-1.9051,-1.9042,-1.9016,-1.9064,-1.9064,-1.9069,-1.9071,-1.9046,-1.9044,-1.9036,-1.899,-1.8989,-1.9034,-1.9033,-1.9031,-1.9031,0,0,0,0,0,0,0,-1.9087,-1.9083,-1.904,-1.906,-1.9061,-1.9069,-1.9068,-1.9037,-1.9045,-1.9064,-1.9067,-1.9065,-1.9047,-1.9039,-1.9036,-1.8988,-1.9034,-1.9032,-1.903,-1.9029,-1.8899,-1.8897,0,0,0,0,0,0,-1.9087,-1.9084,-1.904,-1.9039,-1.9079,-1.9066,-1.9065,-1.9053,-1.9046,-1.9046,-1.9063,-1.9066,-1.9042,-1.9039,-1.9035,-1.8975,-1.9031,-1.9029,-1.9028,-1.8901,-1.8899,-1.8897,0,0,0,0,0,0,-1.9088,-1.9083,-1.9041,-1.9062,-1.9057,-1.9063,-1.905,-1.9052,-1.9044,-1.9045,-1.9046,-1.9053,-1.9044,-1.9039,-1.9002,-1.8974,-1.9028,-1.9026,-1.8903,-1.89,-1.8898,-1.8853,0,0,0,0,0,0,-1.909,-1.9083,-1.9064,-1.9062,-1.9056,-1.9009,-1.9048,-1.905,-1.904,-1.9044,-1.9036,-1.9036,-1.9045,-1.9006,-1.9,-1.8972,-1.9024,-1.8906,-1.8902,-1.8899,-1.8857,-1.8849,-1.8842,0,0,0,0,0,-1.9092,-1.9051,-1.9063,-1.9057,-1.9033,-1.9007,-1.9004,-1.9015,-1.9037,-1.9018,-1.9019,-1.9037,-1.8979,-1.9002,-1.8995,-1.8966,-1.8908,-1.8903,-1.8899,-1.886,-1.885,-1.8842,0,0,0,0,0,0,-1.9047,-1.9051,-1.9064,-1.9021,-1.9014,-1.9013,-1.8989,-1.9005,-1.8989,-1.8993,-1.9007,-1.9005,-1.8965,-1.8962,-1.8987,-1.8916,-1.8947,-1.8941,-1.8919,-1.891,-1.8903,-1.8904,-1.9021,0,0,0,0,0,-1.9033,-1.9013,-1.9017,-1.8978,-1.8974,-1.8982,-1.8971,-1.8982,-1.8973,-1.897,-1.8968,-1.8958,-1.8938,-1.8924,-1.8906,-1.8857,-1.8856,-1.8834,-1.8827,-1.8821,-1.8815,-1.8789,-1.8779,-1.8883,-1.8883,-1.8883,0,0,-1.9002,-1.9002,-1.8988,-1.897,-1.8965,-1.8943,-1.8979,-1.8954,-1.8937,-1.8965,-1.8931,-1.8929,-1.892,-1.8877,-1.8858,-1.8873,-1.8787,-1.8815,-1.881,-1.8808,-1.8784,-1.8774,-1.8765,-1.888,-1.888,-1.8881,0,0,-1.8935,-1.8933,-1.8902,-1.8897,-1.889,-1.8896,-1.8889,-1.8886,-1.8887,-1.8853,-1.8874,-1.8854,-1.8819,-1.8811,-1.8803,-1.8735,-1.875,-1.8729,-1.8689,-1.8664,-1.8655,-1.8648,-1.8623,-1.8614,-1.8723,-1.8723,-1.8723,0,-1.8897,-1.8866,-1.8883,-1.8857,-1.8848,-1.8875,-1.8843,-1.8837,-1.8823,-1.8816,-1.8834,-1.8792,-1.8787,-1.8743,-1.8727,-1.8719,-1.871,-1.8728,-1.8656,-1.8649,-1.8642,-1.8619,-1.8609,-1.872,-1.8721,-1.8721,-1.8721,0,-1.882,-1.8798,-1.8773,-1.8762,-1.875,-1.8721,-1.8732,-1.8719,-1.873,-1.8734,-1.8699,-1.8695,-1.8677,-1.8667,-1.8677,-1.8625,-1.8634,-1.8654,-1.8684,-1.8629,-1.8607,-1.8599,-1.8716,-1.8717,-1.8718,-1.8719,0,0,-1.8721,-1.8722,-1.8712,-1.8708,-1.8704,-1.8687,-1.8659,-1.8643,-1.863,-1.8621,-1.8597,-1.8568,-1.8587,-1.8577,-1.8587,-1.8565,-1.8512,-1.8588,-1.8587,-1.8573,-1.8453,-1.8437,-1.8426,-1.8523,-1.8521,-1.852,-1.8453,0,-1.8654,-1.8608,-1.8623,-1.8575,-1.8555,-1.8582,-1.8558,-1.8552,-1.8555,-1.8538,-1.8541,-1.852,-1.8547,-1.8541,-1.8521,-1.8522,-1.8487,-1.8528,-1.8499,-1.8498,-1.8499,-1.8415,-1.8398,-1.8335,-1.8445,-1.8443,-1.8442,0,-1.8569,-1.8559,-1.851,-1.851,-1.8502,-1.848,-1.8467,-1.8451,-1.8445,-1.8449,-1.8439,-1.8454,-1.8426,-1.8459,-1.842,-1.8447,-1.8436,-1.8436,-1.8434,-1.843,-1.8465,-1.8407,-1.8315,-1.8305,-1.8429,-1.843,-1.8431,0,-1.8501,-1.8475,-1.8442,-1.8438,-1.8438,-1.8422,-1.8421,-1.8417,-1.8407,-1.8395,-1.8389,-1.8373,-1.8364,-1.8352,-1.8362,-1.8385,-1.8321,-1.8354,-1.8322,-1.8322,-1.8306,-1.8306,-1.8209,-1.8301,-1.8302,-1.8302,-1.8302,0,-1.8424,-1.8392,-1.8412,-1.8392,-1.8358,-1.8375,-1.8341,-1.8342,-1.8339,-1.8319,-1.8341,-1.8322,-1.8337,-1.8319,-1.8327,-1.8293,-1.8289,-1.829,-1.8292,-1.8287,-1.8287,-1.8279,-1.8283,-1.8299,-1.83,-1.83,-1.8301,0,-1.8341,-1.8353,-1.832,-1.8324,-1.8324,-1.8298,-1.8301,-1.8282,-1.8288,-1.8262,-1.8257,-1.8266,-1.8246,-1.8256,-1.8233,-1.8239,-1.8195,-1.8204,-1.8197,-1.8199,-1.8166,-1.8168,-1.8059,-1.8045,-1.8148,-1.8147,-1.8146,0,-1.829,-1.8267,-1.8269,-1.8258,-1.8256,-1.8238,-1.8229,-1.8246,-1.8234,-1.8227,-1.8209,-1.8191,-1.8177,-1.8143,-1.8147,-1.813,-1.8138,-1.8101,-1.8135,-1.8131,-1.8136,-1.8137,-1.8134,-1.8093,-1.8092,-1.8091,-1.809,0,-1.8198,-1.8206,-1.8192,-1.818,-1.8169,-1.816,-1.8153,-1.8142,-1.8159,-1.8146,-1.8126,-1.8116,-1.8095,-1.8076,-1.8062,-1.806,-1.8077,-1.808,-1.8071,-1.8065,-1.8062,-1.8062,-1.8177,-1.8081,-1.8082,-1.8083,-1.8083,-1.8084,-1.8129,-1.811,-1.8109,-1.8093,-1.809,-1.8083,-1.8066,-1.8071,-1.8056,-1.8041,-1.8052,-1.8029,-1.8024,-1.8008,-1.8004,-1.7985,-1.7999,-1.7987,-1.7984,-1.798,-1.7975,-1.8066,-1.7983,-1.7983,-1.7983,-1.7983,-1.7983,0,-1.8037,-1.8038,-1.8024,-1.8014,-1.8002,-1.8022,-1.8016,-1.8003,-1.7983,-1.7979,-1.7966,-1.7943,-1.7926,-1.793,-1.7914,-1.7898,-1.7905,-1.7893,-1.7893,-1.7893,-1.7964,-1.7972,-1.7887,-1.7887,-1.7887,-1.7887,-1.7887,-1.7887,-1.7987,-1.7956,-1.7964,-1.7932,-1.7933,-1.7912,-1.7907,-1.7901,-1.7897,-1.7872,-1.7859,-1.7862,-1.786,-1.7845,-1.783,-1.7831,-1.7824,-1.7808,-1.7812,-1.7878,-1.7888,-1.7896,-1.7905,-1.7807,-1.7807,-1.7743,-1.7742,-1.7741]}]]